Погода в Нутэпэльмене

Россия / Чукотский автономный округ     67°25′31″N   174°55′29″W
темп.,
°C
ветер,
м/с
пор.,
м/с
влажн.,
%
обл.,
%
осадки,
мм/ч
давл.,
гПа
погр.,
м
25 января, вт
вт2500:00−31зсз4610096 0.1 100481
03:00−32з46100100 0.0 100491
06:00−32з4610094 0.1 100584
09:00−33з459929 0.0 100652
12:00−33з589511 0.0 1007100
15:00−34з46975 0.0 100870
18:00−33зюз4510053 0.0 101050
21:00−30зюз459998 0.0 101281
26 января, ср
ср2600:00−28зюз3597100 0.1 101597
03:00−28зюз459899 0.1 101792
06:00−29зюз349894 0.1 102045
09:00−32зюз339422 0.0 102326
12:00−32зюз33925 0.0 102622
15:00−33зюз329369 0.0 102811
18:00−34юз2295100 0.0 10299
21:00−33ю2299100 0.0 103114
27 января, чт
чт2700:00−33ю229838 0.0 103223
03:00−34ююз22965 0.0 10329
06:00−34юз22935 0.0 10339
09:00−33юз22925 0.0 10349
12:00−32зюз22915 0.0 10359
15:00−33юз11945 0.0 10359
18:00−33зюз11925 0.0 10379
21:00−33зюз11935 0.0 10389
28 января, пт
пт2800:00−33зсз11935 0.0 10399
03:00−33с01955 0.0 10389
06:00−33ссз01955 0.0 10399
09:00−33ююз01948 0.0 10399
12:00−32ю229415 0.0 103812
15:00−32ююв229944 0.0 103724
18:00−30ююв349534 0.0 103757
21:00−29юв359698 0.0 103658
29 января, сб
сб2900:00−28ююв459547 0.0 103565
03:00−28юв469546 0.0 103472
06:00−27ююв47965 0.0 103270
09:00−27ююв579517 0.0 103271
12:00−24ююв4696100 0.0 103060
15:00−23ююв45965 0.0 102945
18:00−22ю44925 0.0 102831
21:00−22ю43905 0.0 102726